Погода в Кош-Агаче

Россия / Республика Алтай     49°59′47″N   88°39′41″E
темп.,
°C
ветер,
м/с
пор.,
м/с
влажн.,
%
обл.,
%
осадки,
мм/ч
давл.,
гПа
погр.,
м
26 февраля, пт
пт2601:00−23ююз456752 0.0 102575
04:00−28сз12720 0.0 102819
07:00−30сз22720 0.0 103420
10:00−26зсз14736 0.0 1034538
13:00−24з136517 0.0 1033715
16:00−23юз135993 0.0 1032997
19:00−29св017596 0.0 103719
22:00−32сз117690 0.0 104119
27 февраля, сб
сб2701:00−34св018058 0.0 104219
04:00−35св118120 0.0 104219
07:00−35св118019 0.0 104219
10:00−30ссв017631 0.0 104070
13:00−26ю117218 0.0 1035246
16:00−23юз11703 0.0 1033285
19:00−29с018523 0.0 103719
22:00−31св118488 0.0 104119
28 февраля, вс
вс2801:00−32св118945 0.0 104319
04:00−34ссв11940 0.0 104519
07:00−34св11951 0.0 104619
10:00−29в018520 0.0 104471
13:00−25ю117232 0.0 1039258
16:00−21ююз11714 0.0 1037237
19:00−27ссз01848 0.0 103920
22:00−27св118099 0.0 104020
1 марта, пн
пн101:00−27ссв118398 0.0 103820
04:00−27св117762 0.0 103720
07:00−25св117781 0.0 103521
10:00−21ссв1180100 0.1 103184
13:00−16вюв0174100 0.1 1025189
16:00−12юз1172100 0.0 1022236
19:00−16сз0182100 0.0 102321
22:00−16всв1183100 0.0 102421
2 марта, вт
вт201:00−16св1183100 0.0 102421
04:00−18всв1183100 0.0 102320
07:00−19всв1185100 0.0 102420
10:00−15вюв1177100 0.0 102267
13:00−10ююв1166100 0.0 1018325
16:00−8вюв1171100 0.0 1015315
19:00−13всв1277100 0.0 101621
22:00−14всв1179100 0.0 101720